[[{"header":{"parameterUnit":"m.s-1","parameterCategory":1,"la1":30.2991,"la2":30.254,"lo1":-89.0895,"lo2":-89.0444,"dy":0.0017,"dx":0.0017,"nx":28,"ny":28,"refTime":"2024-03-16T21:00:00:Z","depth":0,"parameterNumber":2,"parameterNumberName":"U-component_of_WINDS"},"data":[0,0,0,0,0,0,0,0,0,0,0,0,0,0,0,0,0,0,0,0,0,0,0,0,0,0,0,0,0,0,0,0,0,0,0,0,0,0,0,0,0,0,0,0,0,0,0,0,0,0,0,0,0,0,0,0,0,0,-0.5646,-0.5647,0,-0.5719,-0.5719,-0.572,-0.5711,-0.571,-0.5709,-0.5707,-0.5784,-0.5787,-0.579,0,0,0,0,0,0,0,0,0,0,0,0,0,-0.5501,-0.5503,-0.5646,-0.5647,-0.5648,-0.5719,-0.572,-0.5721,-0.5711,-0.571,-0.5708,-0.5707,-0.5783,-0.5787,-0.5791,0,0,0,0,0,0,0,0,0,0,0,0,0,-0.5568,-0.5504,-0.5646,-0.5652,-0.5653,-0.5718,-0.572,-0.5721,-0.5712,-0.571,-0.5708,-0.5706,-0.5782,-0.5786,-0.5791,-0.5856,0,0,-0.5806,-0.5808,0,0,0,0,0,0,0,0,-0.5564,-0.5573,-0.565,-0.5651,-0.5653,-0.5704,-0.5696,-0.5766,-0.5712,-0.5689,-0.5707,-0.5705,-0.5759,-0.5765,-0.5783,-0.586,-0.5863,-0.5806,-0.5809,-0.5811,-0.5812,0,0,0,0,0,0,0,-0.5559,-0.557,-0.5675,-0.5651,-0.5653,-0.5651,-0.5659,-0.571,-0.5733,-0.5691,-0.5691,-0.5699,-0.5759,-0.5779,-0.5785,-0.5864,-0.5806,-0.581,-0.5813,-0.5815,-0.5998,-0.5999,0,0,0,0,0,0,-0.5553,-0.5566,-0.5673,-0.5677,-0.5603,-0.5655,-0.5664,-0.5689,-0.5733,-0.5738,-0.5701,-0.5699,-0.5771,-0.5779,-0.5788,-0.5867,-0.5811,-0.5815,-0.5818,-0.5996,-0.5998,-0.6,0,0,0,0,0,0,-0.555,-0.5563,-0.567,-0.5621,-0.5635,-0.566,-0.5689,-0.5692,-0.5711,-0.574,-0.5744,-0.5716,-0.577,-0.5781,-0.5839,-0.5869,-0.5817,-0.5822,-0.5993,-0.5996,-0.5999,-0.6026,0,0,0,0,0,0,-0.5546,-0.5561,-0.5586,-0.5622,-0.5637,-0.572,-0.569,-0.5694,-0.5719,-0.5717,-0.5755,-0.576,-0.577,-0.5832,-0.5844,-0.5875,-0.5825,-0.5991,-0.5995,-0.5998,-0.6022,-0.6029,-0.6035,0,0,0,0,0,-0.5541,-0.5591,-0.5588,-0.56,-0.5669,-0.5721,-0.573,-0.574,-0.5721,-0.5747,-0.5765,-0.5759,-0.5864,-0.5838,-0.5851,-0.5884,-0.5989,-0.5993,-0.5998,-0.602,-0.6028,-0.6035,0,0,0,0,0,0,-0.556,-0.5596,-0.5592,-0.5656,-0.5686,-0.572,-0.5752,-0.5748,-0.5784,-0.5781,-0.5792,-0.5801,-0.5859,-0.5877,-0.5848,-0.5949,-0.5924,-0.5931,-0.5936,-0.5944,-0.5951,-0.5946,-0.5829,0,0,0,0,0,-0.5571,-0.561,-0.564,-0.5693,-0.5708,-0.5727,-0.5751,-0.5755,-0.5786,-0.5799,-0.5822,-0.5853,-0.5893,-0.5919,-0.5958,-0.6024,-0.6033,-0.6053,-0.606,-0.6065,-0.6072,-0.6109,-0.6118,-0.6015,-0.6015,-0.6015,0,0,-0.5596,-0.562,-0.5644,-0.5698,-0.5721,-0.5762,-0.5738,-0.5782,-0.5813,-0.5806,-0.5862,-0.588,-0.5915,-0.5978,-0.6007,-0.5995,-0.6102,-0.6071,-0.6075,-0.6079,-0.6114,-0.6124,-0.6133,-0.6018,-0.6018,-0.6017,0,0,-0.5661,-0.5683,-0.573,-0.5754,-0.5789,-0.5801,-0.5812,-0.5847,-0.5858,-0.5914,-0.591,-0.5947,-0.6015,-0.6041,-0.6062,-0.6136,-0.6132,-0.6148,-0.6183,-0.6219,-0.6227,-0.6234,-0.6261,-0.6271,-0.6154,-0.6155,-0.6155,0,-0.5688,-0.5748,-0.5755,-0.58,-0.5824,-0.5818,-0.5866,-0.5889,-0.5935,-0.5952,-0.5937,-0.6023,-0.6046,-0.6115,-0.6132,-0.615,-0.6164,-0.6145,-0.6225,-0.6232,-0.6239,-0.6265,-0.6275,-0.6156,-0.6156,-0.6156,-0.6156,0,-0.5779,-0.5821,-0.5855,-0.5899,-0.5926,-0.5972,-0.5987,-0.6014,-0.6015,-0.6029,-0.6086,-0.6114,-0.6158,-0.6174,-0.6176,-0.6243,-0.6235,-0.6222,-0.6197,-0.6251,-0.6276,-0.6286,-0.6159,-0.6158,-0.6158,-0.6157,0,0,-0.5861,-0.5907,-0.5919,-0.5939,-0.5977,-0.601,-0.6055,-0.6097,-0.612,-0.6152,-0.6191,-0.6248,-0.6237,-0.6262,-0.6267,-0.6298,-0.6355,-0.6282,-0.6283,-0.6296,-0.6431,-0.6441,-0.6452,-0.6352,-0.6354,-0.6355,-0.6428,0,-0.5931,-0.6011,-0.6018,-0.6091,-0.613,-0.6124,-0.6164,-0.6192,-0.6205,-0.6241,-0.6256,-0.6297,-0.6278,-0.6293,-0.6324,-0.6342,-0.6383,-0.6336,-0.6389,-0.6391,-0.6382,-0.6465,-0.6476,-0.6544,-0.6438,-0.644,-0.6441,0,-0.6024,-0.6057,-0.6133,-0.6165,-0.6182,-0.6218,-0.6256,-0.629,-0.6321,-0.6329,-0.6356,-0.6356,-0.6404,-0.6375,-0.6441,-0.6409,-0.6431,-0.6443,-0.6445,-0.6452,-0.642,-0.6475,-0.6566,-0.6576,-0.6456,-0.6455,-0.6453,0,-0.6077,-0.6141,-0.6195,-0.6212,-0.625,-0.6275,-0.6292,-0.6321,-0.6346,-0.638,-0.6396,-0.6435,-0.6457,-0.6487,-0.6498,-0.6476,-0.6564,-0.6536,-0.6573,-0.6572,-0.6593,-0.6592,-0.6689,-0.6604,-0.6604,-0.6604,-0.6604,0,-0.6156,-0.6203,-0.6219,-0.6253,-0.6305,-0.6312,-0.6364,-0.638,-0.6406,-0.6443,-0.644,-0.6474,-0.6486,-0.6523,-0.6531,-0.6585,-0.6594,-0.6603,-0.6605,-0.6604,-0.6603,-0.662,-0.6616,-0.6607,-0.6606,-0.6605,-0.6605,0,-0.6225,-0.6238,-0.6296,-0.6327,-0.6336,-0.6373,-0.64,-0.6432,-0.6444,-0.649,-0.6502,-0.6522,-0.6564,-0.6578,-0.663,-0.6635,-0.6698,-0.6695,-0.6688,-0.6688,-0.6724,-0.6721,-0.6837,-0.6853,-0.6756,-0.6757,-0.6758,0,-0.6275,-0.6311,-0.6345,-0.6369,-0.6387,-0.6426,-0.645,-0.6459,-0.6485,-0.6522,-0.655,-0.6592,-0.6626,-0.6695,-0.6714,-0.6754,-0.6753,-0.679,-0.6759,-0.6757,-0.6755,-0.6753,-0.6757,-0.6797,-0.6798,-0.6799,-0.68,0,-0.6363,-0.6368,-0.6403,-0.6441,-0.647,-0.65,-0.6529,-0.6549,-0.6561,-0.6591,-0.6634,-0.666,-0.6712,-0.6755,-0.6794,-0.6812,-0.6809,-0.6809,-0.682,-0.682,-0.6815,-0.6819,-0.6705,-0.6807,-0.6806,-0.6806,-0.6805,-0.6805,-0.6426,-0.6457,-0.6486,-0.6526,-0.6548,-0.6575,-0.6607,-0.6622,-0.6658,-0.6701,-0.6703,-0.675,-0.678,-0.6833,-0.6853,-0.689,-0.6879,-0.6894,-0.6899,-0.6903,-0.6906,-0.6807,-0.6897,-0.6897,-0.6897,-0.6896,-0.6896,0,-0.6515,-0.6532,-0.6568,-0.6609,-0.664,-0.6631,-0.6663,-0.669,-0.6731,-0.6758,-0.6792,-0.6841,-0.6881,-0.6903,-0.6944,-0.6969,-0.6968,-0.698,-0.6979,-0.6983,-0.6913,-0.69,-0.6979,-0.6979,-0.6979,-0.6979,-0.6979,-0.6979,-0.6565,-0.6618,-0.6625,-0.6689,-0.6707,-0.6752,-0.6771,-0.6796,-0.6818,-0.6873,-0.6906,-0.692,-0.6945,-0.6987,-0.7024,-0.7029,-0.7045,-0.7057,-0.7062,-0.6996,-0.6988,-0.698,-0.6968,-0.706,-0.706,-0.7129,-0.7129,-0.713]},{"header":{"parameterUnit":"m.s-1","parameterCategory":1,"la1":30.2991,"la2":30.254,"lo1":-89.0895,"lo2":-89.0444,"dy":0.0017,"dx":0.0017,"nx":28,"ny":28,"refTime":"2024-03-16T21:00:00:Z","depth":0,"parameterNumber":3,"parameterNumberName":"V-component_of_WINDS"},"data":[0,0,0,0,0,0,0,0,0,0,0,0,0,0,0,0,0,0,0,0,0,0,0,0,0,0,0,0,0,0,0,0,0,0,0,0,0,0,0,0,0,0,0,0,0,0,0,0,0,0,0,0,0,0,0,0,0,0,-5.8111,-5.8112,0,-5.8193,-5.8194,-5.8195,-5.8132,-5.8129,-5.8127,-5.8124,-5.8204,-5.8208,-5.8213,0,0,0,0,0,0,0,0,0,0,0,0,0,-5.7895,-5.7899,-5.8111,-5.8112,-5.8113,-5.8193,-5.8194,-5.8195,-5.8133,-5.8129,-5.8126,-5.8123,-5.8202,-5.8208,-5.8213,0,0,0,0,0,0,0,0,0,0,0,0,0,-5.7984,-5.79,-5.8111,-5.8091,-5.809,-5.8193,-5.8194,-5.8195,-5.8133,-5.8129,-5.8125,-5.8121,-5.82,-5.8207,-5.8214,-5.8338,0,0,-5.8235,-5.8238,0,0,0,0,0,0,0,0,-5.7979,-5.7992,-5.8093,-5.8093,-5.8092,-5.8148,-5.8147,-5.8243,-5.8134,-5.8117,-5.8124,-5.8119,-5.8188,-5.8196,-5.822,-5.8342,-5.8346,-5.8236,-5.824,-5.8243,-5.8245,0,0,0,0,0,0,0,-5.7973,-5.7988,-5.8143,-5.8095,-5.8094,-5.8077,-5.8085,-5.8165,-5.8174,-5.8118,-5.8114,-5.8125,-5.8187,-5.8214,-5.8222,-5.8347,-5.8236,-5.8242,-5.8246,-5.8249,-5.8575,-5.8579,0,0,0,0,0,0,-5.7969,-5.7983,-5.814,-5.8146,-5.8024,-5.8084,-5.8093,-5.8134,-5.8173,-5.8175,-5.8128,-5.8121,-5.8204,-5.8214,-5.8224,-5.8373,-5.8243,-5.825,-5.8254,-5.857,-5.8575,-5.858,0,0,0,0,0,0,-5.7965,-5.7984,-5.8137,-5.8063,-5.8082,-5.8092,-5.8139,-5.8138,-5.8164,-5.8181,-5.8182,-5.8154,-5.8201,-5.8214,-5.8311,-5.8374,-5.8253,-5.8259,-5.8565,-5.8572,-5.8578,-5.867,0,0,0,0,0,0,-5.7959,-5.7982,-5.8031,-5.8065,-5.8086,-5.8224,-5.8143,-5.8143,-5.8177,-5.8169,-5.8205,-5.8207,-5.8199,-5.8301,-5.8318,-5.8382,-5.8265,-5.8559,-5.8568,-5.8576,-5.8662,-5.8679,-5.8695,0,0,0,0,0,-5.7951,-5.8053,-5.8034,-5.8053,-5.8147,-5.8228,-5.824,-5.823,-5.8183,-5.8231,-5.8241,-5.8206,-5.8365,-5.8311,-5.833,-5.8397,-5.8555,-5.8565,-5.8575,-5.8654,-5.8676,-5.8694,0,0,0,0,0,0,-5.8024,-5.8057,-5.8036,-5.8152,-5.8188,-5.8217,-5.8278,-5.8253,-5.8301,-5.8292,-5.8275,-5.8284,-5.8386,-5.84,-5.834,-5.8519,-5.8452,-5.8466,-5.8506,-5.8527,-5.8543,-5.8537,-5.827,0,0,0,0,0,-5.8054,-5.8119,-5.8143,-5.8242,-5.8262,-5.8267,-5.8302,-5.8291,-5.8327,-5.8341,-5.8359,-5.8394,-5.8451,-5.849,-5.8543,-5.8663,-5.867,-5.8719,-5.8735,-5.8748,-5.8761,-5.8826,-5.8847,-5.8613,-5.8613,-5.8613,0,0,-5.8115,-5.8141,-5.8183,-5.8258,-5.8284,-5.8351,-5.828,-5.8353,-5.8401,-5.8352,-5.8445,-5.8459,-5.8496,-5.8605,-5.8654,-5.8621,-5.8827,-5.8761,-5.8772,-5.8777,-5.8838,-5.886,-5.888,-5.862,-5.8619,-5.8618,0,0,-5.8262,-5.8288,-5.8374,-5.8403,-5.8445,-5.8448,-5.8468,-5.8502,-5.851,-5.8603,-5.8567,-5.8624,-5.8724,-5.8752,-5.878,-5.8938,-5.8907,-5.8955,-5.9042,-5.9105,-5.9123,-5.9139,-5.9196,-5.9216,-5.8968,-5.8968,-5.8968,0,-5.8333,-5.8433,-5.8421,-5.8498,-5.8531,-5.8491,-5.8578,-5.8605,-5.8662,-5.8686,-5.8648,-5.8773,-5.8795,-5.8911,-5.8949,-5.8973,-5.8995,-5.8952,-5.9122,-5.9138,-5.9153,-5.9207,-5.9228,-5.8974,-5.8973,-5.8973,-5.8972,0,-5.8518,-5.8588,-5.8652,-5.871,-5.8751,-5.8832,-5.8832,-5.8874,-5.886,-5.8866,-5.8961,-5.8987,-5.9045,-5.9072,-5.9057,-5.9185,-5.9163,-5.9124,-5.9056,-5.9181,-5.9231,-5.9252,-5.8982,-5.898,-5.8978,-5.8977,0,0,-5.8713,-5.8764,-5.8788,-5.8814,-5.8858,-5.891,-5.8989,-5.9048,-5.9085,-5.9125,-5.919,-5.9276,-5.924,-5.9271,-5.926,-5.9315,-5.9439,-5.9269,-5.927,-5.93,-5.9581,-5.9611,-5.9635,-5.9419,-5.9423,-5.9426,-5.9578,0,-5.8862,-5.9001,-5.8993,-5.9123,-5.9187,-5.915,-5.9218,-5.9252,-5.926,-5.9314,-5.9321,-5.9383,-5.9331,-5.935,-5.9403,-5.9413,-5.9495,-5.9402,-5.9478,-5.9481,-5.9471,-5.9661,-5.9693,-5.9836,-5.9598,-5.9601,-5.9603,0,-5.9054,-5.9104,-5.9241,-5.9275,-5.9302,-5.9364,-5.9417,-5.947,-5.9506,-5.9508,-5.9544,-5.9523,-5.9601,-5.9532,-5.9639,-5.9575,-5.9606,-5.9616,-5.9621,-5.9628,-5.955,-5.9674,-5.9881,-5.9903,-5.9634,-5.9632,-5.9629,0,-5.9184,-5.9284,-5.9379,-5.9402,-5.9444,-5.9489,-5.9508,-5.9541,-5.9577,-5.9623,-5.9646,-5.97,-5.973,-5.9772,-5.9766,-5.9716,-5.9875,-5.9804,-5.9878,-5.9878,-5.9913,-5.9911,-6.0129,-5.9932,-5.9932,-5.9932,-5.9931,0,-5.9351,-5.9437,-5.9438,-5.9496,-5.959,-5.958,-5.9673,-5.9687,-5.9716,-5.9776,-5.9746,-5.9802,-5.9791,-5.9846,-5.9842,-5.9931,-5.9945,-5.9948,-5.9945,-5.9951,-5.9951,-5.9971,-5.9961,-5.9937,-5.9936,-5.9935,-5.9934,0,-5.9511,-5.9516,-5.9617,-5.9649,-5.9659,-5.9728,-5.9754,-5.9809,-5.9814,-5.989,-5.9907,-5.9916,-5.998,-5.9978,-6.005,-6.0047,-6.0157,-6.0143,-6.0146,-6.0143,-6.0216,-6.021,-6.0455,-6.0487,-6.0269,-6.0272,-6.0273,0,-5.9619,-5.9684,-5.9724,-5.9763,-5.9785,-5.9848,-5.9885,-5.9876,-5.9916,-5.9963,-6.0012,-6.0074,-6.0123,-6.0226,-6.0238,-6.0293,-6.028,-6.0362,-6.0288,-6.0292,-6.0282,-6.0279,-6.0285,-6.0377,-6.0379,-6.0381,-6.0383,0,-5.9808,-5.9807,-5.9863,-5.9921,-5.9966,-6.001,-6.0051,-6.0083,-6.0079,-6.0125,-6.0191,-6.023,-6.0304,-6.0365,-6.0418,-6.0436,-6.0409,-6.0406,-6.0426,-6.0433,-6.0432,-6.0434,-6.0186,-6.0401,-6.0399,-6.0398,-6.0397,-6.0396,-5.9946,-6.0002,-6.004,-6.0103,-6.0133,-6.0171,-6.0225,-6.0238,-6.0293,-6.0355,-6.0345,-6.0419,-6.0453,-6.0522,-6.0545,-6.0602,-6.0572,-6.0601,-6.0609,-6.0616,-6.0625,-6.0422,-6.0611,-6.061,-6.061,-6.061,-6.0609,0,-6.0134,-6.0157,-6.0215,-6.0274,-6.0323,-6.0295,-6.0338,-6.0381,-6.0447,-6.0482,-6.0532,-6.0608,-6.0667,-6.0683,-6.074,-6.0783,-6.0772,-6.0798,-6.0795,-6.0799,-6.0647,-6.0625,-6.0806,-6.0806,-6.0806,-6.0806,-6.0806,-6.0806,-6.0238,-6.0333,-6.0336,-6.0445,-6.0466,-6.054,-6.0567,-6.0602,-6.063,-6.0717,-6.0767,-6.0778,-6.0805,-6.0864,-6.0917,-6.092,-6.0942,-6.0974,-6.0972,-6.083,-6.081,-6.0791,-6.077,-6.0979,-6.0979,-6.112,-6.1121,-6.1122]}]]